sat.trackr.live / text

‹ back to catalog

STARLINK-34469

NORAD 64615 · 2025-137X

PAYLOAD ACTIVE UNKNOWN

§ Identity

Operator
Country
US
Launch date
2025-06-25
Launch site
AFETR
Launch vehicle
Mass (kg)
RCS (m²)

Purposes: comms

External: N2YO · Heavens-Above · Gunter

§ Orbital elements

Epoch: 2026-09-20T22:45:46.661472Z

Period
93.85 min
Inclination
53.1598°
Eccentricity
0.0001601
Mean motion
15.34416637 rev/d
Perigee alt
461.6 km
Apogee alt
463.7 km
Semi-major
6,840.8 km
B*
4.9104e-4
RAAN
147.3036°
Arg perigee
96.5785°
Mean anomaly
263.5400°
Rev number
7,064

§ Raw data

STARLINK-344691 64615U 25137X   26263.94845673  .00016259  00000+0  49104-3 0  99982 64615  53.1598 147.3036 0001601  96.5785 263.5400 15.34416637 70644

JSON: /api/v1/satellites/64615 · /tle

For live sub-satellite position, see the globe view (requires WebGL).

§ Visibility from observer

Set your observer location to see the next 7 days of passes ≥ 10°. The values pass through the URL so the page stays shareable.

No JS? Fill the form by hand. The geolocation button needs JavaScript.